[[{"header":{"parameterUnit":"m.s-1","parameterCategory":1,"la1":30.2991,"la2":30.254,"lo1":-89.0895,"lo2":-89.0444,"dy":0.0017,"dx":0.0017,"nx":28,"ny":28,"refTime":"2023-08-18T09:00:00:Z","depth":0,"parameterNumber":2,"parameterNumberName":"U-component_of_WINDS"},"data":[0,0,0,0,0,0,0,0,0,0,0,0,0,0,0,0,0,0,0,0,0,0,0,0,0,0,0,0,0,0,0,0,0,0,0,0,0,0,0,0,0,0,0,0,0,0,0,0,0,0,0,0,0,0,0,0,0,0,4.5953,4.5956,0,4.6173,4.6175,4.6178,4.6158,4.6155,4.6151,4.6148,4.6374,4.6383,4.6392,0,0,0,0,0,0,0,0,0,0,0,0,0,4.5516,4.5524,4.5953,4.5956,4.5959,4.6172,4.6175,4.6178,4.6158,4.6154,4.615,4.6146,4.6371,4.6382,4.6393,0,0,0,0,0,0,0,0,0,0,0,0,0,4.5718,4.5527,4.5953,4.5974,4.5979,4.6172,4.6176,4.6179,4.6159,4.6154,4.6149,4.6144,4.6367,4.638,4.6394,4.658,0,0,4.6436,4.6442,0,0,0,0,0,0,0,0,4.5707,4.5734,4.5968,4.5973,4.5978,4.6133,4.6104,4.6314,4.6161,4.6091,4.6148,4.6142,4.6298,4.6317,4.6369,4.6591,4.66,4.6437,4.6446,4.6451,4.6455,0,0,0,0,0,0,0,4.5693,4.5724,4.604,4.5972,4.5978,4.5973,4.5996,4.6144,4.622,4.6096,4.6096,4.6122,4.6299,4.6356,4.6374,4.6604,4.6437,4.6449,4.6458,4.6463,4.6987,4.6992,0,0,0,0,0,0,4.5673,4.5713,4.6033,4.6047,4.5827,4.5985,4.6011,4.6088,4.6218,4.6233,4.6126,4.612,4.6335,4.6358,4.6382,4.6606,4.6451,4.6464,4.6472,4.6981,4.6988,4.6994,0,0,0,0,0,0,4.5664,4.5702,4.6024,4.588,4.592,4.5998,4.6085,4.6095,4.6152,4.6241,4.6254,4.617,4.6332,4.6363,4.653,4.6614,4.647,4.6483,4.6974,4.6983,4.6991,4.7058,0,0,0,0,0,0,4.5652,4.5699,4.5771,4.5881,4.5928,4.6169,4.609,4.6103,4.6175,4.617,4.6285,4.6299,4.633,4.651,4.6544,4.663,4.6494,4.6967,4.6978,4.6988,4.7048,4.7067,4.7084,0,0,0,0,0,4.5636,4.5781,4.5774,4.5813,4.6019,4.6174,4.6201,4.6233,4.6182,4.6255,4.6311,4.6296,4.66,4.6527,4.6566,4.6657,4.6962,4.6975,4.6987,4.704,4.7064,4.7083,0,0,0,0,0,0,4.5679,4.5796,4.579,4.5975,4.6065,4.617,4.6262,4.6257,4.6363,4.6353,4.6389,4.6416,4.6584,4.6638,4.6555,4.6843,4.6774,4.6795,4.6801,4.6824,4.6842,4.6824,4.6505,0,0,0,0,0,4.571,4.5826,4.5922,4.6077,4.6122,4.6185,4.6253,4.627,4.6364,4.6402,4.6471,4.6563,4.6679,4.6755,4.6867,4.7057,4.708,4.7139,4.7156,4.717,4.7187,4.7289,4.7315,4.7036,4.7036,4.7035,0,0,4.5775,4.5854,4.5925,4.6087,4.6158,4.6277,4.6216,4.6345,4.6433,4.6422,4.6583,4.6638,4.6743,4.6921,4.7004,4.6971,4.727,4.7187,4.7197,4.7207,4.7305,4.7331,4.7355,4.7044,4.7043,4.7042,0,0,4.5954,4.6026,4.6161,4.6234,4.6342,4.6383,4.6415,4.6522,4.6557,4.672,4.6713,4.6819,4.7019,4.7093,4.7157,4.7363,4.7351,4.7399,4.749,4.7589,4.7611,4.7631,4.7702,4.7727,4.7416,4.7416,4.7416,0,4.6021,4.62,4.6232,4.6361,4.6431,4.6427,4.6563,4.6632,4.6772,4.682,4.6783,4.7032,4.7103,4.7297,4.7347,4.74,4.7437,4.7384,4.7605,4.7625,4.7644,4.7712,4.7739,4.7421,4.742,4.742,4.7419,0,4.6276,4.64,4.6496,4.6629,4.6712,4.6844,4.6895,4.6975,4.6985,4.7029,4.7194,4.7278,4.7406,4.7454,4.7466,4.7651,4.7627,4.7597,4.7528,4.7675,4.7739,4.7766,4.7427,4.7426,4.7424,4.7423,0,0,4.6487,4.6636,4.6671,4.673,4.6849,4.6945,4.7077,4.7201,4.7267,4.7364,4.7474,4.7643,4.7615,4.7688,4.7708,4.7795,4.795,4.7755,4.7758,4.7786,4.8155,4.8175,4.8205,4.7944,4.7949,4.7953,4.8146,0,4.6676,4.6909,4.6941,4.7146,4.7259,4.7256,4.737,4.7455,4.75,4.7603,4.7653,4.7771,4.7727,4.777,4.7857,4.7913,4.8024,4.79,4.8045,4.805,4.8016,4.8239,4.8261,4.8438,4.8171,4.8176,4.8179,0,4.6928,4.7029,4.7246,4.7347,4.7396,4.7498,4.7613,4.7712,4.7808,4.7834,4.7915,4.7924,4.8059,4.7986,4.8172,4.8087,4.8148,4.8185,4.8192,4.8205,4.8121,4.8255,4.8496,4.8521,4.8219,4.8216,4.8213,0,4.7057,4.7248,4.7402,4.7453,4.7576,4.7648,4.7702,4.7793,4.7865,4.7966,4.8013,4.8129,4.8192,4.8282,4.8321,4.8265,4.8504,4.8435,4.8529,4.8528,4.8577,4.8573,4.8829,4.8622,4.8621,4.8621,4.862,0,4.7263,4.7395,4.7461,4.7555,4.7702,4.7738,4.7883,4.7935,4.8016,4.8119,4.8125,4.8222,4.8269,4.8373,4.8406,4.8553,4.8583,4.8607,4.8613,4.8605,4.8601,4.8644,4.8632,4.8628,4.8626,4.8625,4.8624,0,4.7431,4.7482,4.7648,4.775,4.7779,4.7883,4.797,4.8061,4.8105,4.8236,4.8268,4.8338,4.846,4.8509,4.866,4.8681,4.8851,4.8849,4.8818,4.8819,4.8909,4.8899,4.9199,4.9239,4.9007,4.901,4.9011,0,4.7558,4.7659,4.7772,4.7841,4.7898,4.801,4.8083,4.8122,4.8198,4.8314,4.839,4.8513,4.8612,4.8809,4.8872,4.8987,4.8986,4.9084,4.9004,4.8991,4.8984,4.8977,4.8986,4.9097,4.91,4.9102,4.9103,0,4.7778,4.7797,4.7902,4.8016,4.8102,4.8194,4.8283,4.8339,4.8392,4.8477,4.8602,4.8679,4.8832,4.8953,4.9071,4.9126,4.9123,4.9128,4.9155,4.9146,4.9123,4.9134,4.8855,4.9121,4.9119,4.9118,4.9117,4.9116,4.7928,4.8016,4.8109,4.8225,4.8296,4.8378,4.8468,4.8522,4.8627,4.8754,4.8771,4.8904,4.8996,4.9154,4.9215,4.9319,4.9294,4.9334,4.9344,4.9352,4.9357,4.9108,4.9341,4.9341,4.9341,4.934,4.934,0,4.8145,4.8204,4.831,4.8434,4.8525,4.8514,4.8612,4.8688,4.8805,4.8891,4.8989,4.9131,4.9248,4.932,4.9438,4.9507,4.9509,4.9536,4.953,4.9543,4.9375,4.9338,4.9533,4.9533,4.9533,4.9533,4.9533,4.9533,4.8268,4.8417,4.8447,4.863,4.8688,4.8818,4.8874,4.895,4.9018,4.9177,4.9274,4.932,4.94,4.9523,4.9629,4.9647,4.9689,4.9718,4.9734,4.9575,4.9555,4.9536,4.9501,4.9728,4.9728,4.9893,4.9895,4.9896]},{"header":{"parameterUnit":"m.s-1","parameterCategory":1,"la1":30.2991,"la2":30.254,"lo1":-89.0895,"lo2":-89.0444,"dy":0.0017,"dx":0.0017,"nx":28,"ny":28,"refTime":"2023-08-18T09:00:00:Z","depth":0,"parameterNumber":3,"parameterNumberName":"V-component_of_WINDS"},"data":[0,0,0,0,0,0,0,0,0,0,0,0,0,0,0,0,0,0,0,0,0,0,0,0,0,0,0,0,0,0,0,0,0,0,0,0,0,0,0,0,0,0,0,0,0,0,0,0,0,0,0,0,0,0,0,0,0,0,0.5488,0.5489,0,0.5583,0.5584,0.5586,0.5609,0.5608,0.5608,0.5607,0.5706,0.571,0.5713,0,0,0,0,0,0,0,0,0,0,0,0,0,0.5327,0.533,0.5488,0.5489,0.549,0.5583,0.5585,0.5586,0.5609,0.5608,0.5607,0.5607,0.5705,0.5709,0.5713,0,0,0,0,0,0,0,0,0,0,0,0,0,0.5407,0.5331,0.5488,0.5513,0.5516,0.5583,0.5585,0.5586,0.5609,0.5608,0.5607,0.5606,0.5704,0.5709,0.5714,0.5762,0,0,0.5728,0.573,0,0,0,0,0,0,0,0,0.5402,0.5413,0.5508,0.5511,0.5515,0.5583,0.5564,0.5645,0.5609,0.5574,0.5607,0.5606,0.5666,0.5674,0.5694,0.5767,0.5771,0.5729,0.5732,0.5734,0.5735,0,0,0,0,0,0,0,0.5397,0.5409,0.5526,0.551,0.5514,0.552,0.553,0.558,0.5624,0.5577,0.5579,0.559,0.5668,0.5689,0.5697,0.5773,0.5729,0.5733,0.5736,0.5738,0.5889,0.589,0,0,0,0,0,0,0.5387,0.5404,0.5523,0.5529,0.5455,0.5524,0.5535,0.5562,0.5624,0.5632,0.559,0.559,0.5682,0.5691,0.57,0.5761,0.5734,0.5738,0.5741,0.5888,0.589,0.5891,0,0,0,0,0,0,0.5383,0.5397,0.5519,0.5467,0.5483,0.5527,0.5558,0.5565,0.5586,0.5634,0.5642,0.5604,0.5681,0.5693,0.5746,0.5765,0.5741,0.5745,0.5887,0.5889,0.589,0.5883,0,0,0,0,0,0,0.5378,0.5396,0.5415,0.5467,0.5486,0.5563,0.5559,0.5567,0.5594,0.5595,0.5649,0.5657,0.5681,0.5739,0.5751,0.5771,0.5749,0.5885,0.5888,0.589,0.5882,0.5884,0.5886,0,0,0,0,0,0.5373,0.541,0.5416,0.543,0.551,0.5564,0.5575,0.5602,0.5596,0.5615,0.5645,0.5655,0.576,0.5744,0.5758,0.578,0.5884,0.5887,0.5889,0.5881,0.5883,0.5886,0,0,0,0,0,0,0.5359,0.5417,0.5424,0.5479,0.5516,0.5568,0.5594,0.5604,0.5645,0.5644,0.5676,0.5688,0.5739,0.5764,0.5745,0.5829,0.5822,0.5828,0.5811,0.5814,0.5816,0.5809,0.5753,0,0,0,0,0,0.5362,0.5401,0.545,0.5493,0.5512,0.5549,0.5574,0.5591,0.5631,0.5648,0.5682,0.5721,0.5763,0.579,0.5831,0.5885,0.5897,0.5907,0.5909,0.591,0.5915,0.5944,0.5949,0.5899,0.5899,0.5899,0,0,0.537,0.5406,0.5429,0.5492,0.5523,0.5562,0.5563,0.5605,0.5634,0.5654,0.5706,0.5732,0.5778,0.5831,0.5857,0.5854,0.5931,0.5913,0.5914,0.5918,0.5947,0.5952,0.5956,0.5901,0.59,0.59,0,0,0.5404,0.5435,0.5474,0.5505,0.5551,0.5576,0.5585,0.5635,0.5653,0.5705,0.572,0.5756,0.5828,0.5859,0.5885,0.5928,0.5938,0.5941,0.5952,0.5981,0.5985,0.5988,0.6003,0.6008,0.5945,0.5945,0.5945,0,0.5407,0.5467,0.5494,0.5534,0.5561,0.558,0.562,0.5648,0.5706,0.5724,0.5721,0.581,0.5842,0.5902,0.5913,0.5933,0.5944,0.5935,0.5982,0.5986,0.599,0.6004,0.601,0.5945,0.5945,0.5945,0.5945,0,0.5469,0.551,0.5536,0.559,0.562,0.566,0.5693,0.572,0.5734,0.5758,0.5811,0.585,0.5898,0.5914,0.5929,0.5976,0.5973,0.5975,0.5969,0.5994,0.6008,0.6014,0.5945,0.5945,0.5945,0.5945,0,0,0.5498,0.5565,0.5574,0.5598,0.565,0.5682,0.5723,0.577,0.5792,0.5831,0.5865,0.5924,0.5926,0.5955,0.5973,0.5998,0.6029,0.5997,0.5999,0.6001,0.6083,0.6081,0.6087,0.6036,0.6037,0.6038,0.6079,0,0.5538,0.5611,0.5635,0.5695,0.5733,0.5751,0.5786,0.5821,0.5845,0.5881,0.5907,0.5948,0.5948,0.5965,0.599,0.602,0.6046,0.6017,0.6069,0.607,0.6057,0.6095,0.6093,0.613,0.6085,0.6086,0.6087,0,0.5594,0.5633,0.5696,0.5742,0.5759,0.579,0.5834,0.5868,0.5908,0.5924,0.5955,0.5971,0.6014,0.6004,0.6064,0.6044,0.6066,0.6083,0.6085,0.6091,0.608,0.6102,0.6143,0.6148,0.6096,0.6095,0.6094,0,0.5609,0.5676,0.5723,0.5743,0.5798,0.5819,0.5843,0.5882,0.5908,0.5947,0.5964,0.6007,0.6031,0.6064,0.6091,0.6082,0.6148,0.6141,0.6162,0.6161,0.6176,0.6174,0.6221,0.619,0.619,0.619,0.6189,0,0.5651,0.5689,0.573,0.5759,0.5802,0.5829,0.5871,0.5896,0.593,0.5964,0.5982,0.6013,0.6047,0.6083,0.6104,0.615,0.6161,0.6174,0.618,0.6173,0.6171,0.6188,0.6186,0.6191,0.6191,0.619,0.619,0,0.5674,0.5703,0.5755,0.5802,0.5814,0.5844,0.5884,0.5913,0.5936,0.5979,0.599,0.6028,0.6071,0.6101,0.6156,0.6171,0.6219,0.6225,0.6206,0.6208,0.6227,0.6225,0.6287,0.6296,0.6259,0.6259,0.6259,0,0.5699,0.5729,0.5778,0.5802,0.5825,0.5863,0.5889,0.5917,0.5944,0.5991,0.6013,0.6057,0.6093,0.6161,0.6193,0.6236,0.6242,0.626,0.6248,0.624,0.6242,0.624,0.6242,0.6262,0.6262,0.6263,0.6263,0,0.574,0.5753,0.5789,0.5831,0.5861,0.5896,0.593,0.5949,0.5982,0.6011,0.6055,0.6083,0.6138,0.6181,0.6226,0.6251,0.6263,0.6266,0.6273,0.6267,0.6254,0.6261,0.621,0.6265,0.6265,0.6265,0.6264,0.6264,0.5765,0.5792,0.583,0.587,0.5899,0.593,0.5959,0.5986,0.6022,0.6069,0.6083,0.6128,0.6167,0.6228,0.6253,0.6288,0.6287,0.6298,0.63,0.6302,0.6302,0.6248,0.6297,0.6297,0.6297,0.6297,0.6297,0,0.5807,0.5832,0.5868,0.5915,0.5947,0.5954,0.5992,0.6018,0.6057,0.6091,0.6126,0.6176,0.6217,0.6252,0.6295,0.6316,0.6323,0.6327,0.6325,0.6331,0.6301,0.629,0.6321,0.6321,0.6321,0.6321,0.6321,0.6321,0.5832,0.5877,0.5894,0.5953,0.5978,0.6022,0.6043,0.6072,0.6099,0.6153,0.6187,0.6209,0.6244,0.6289,0.6327,0.6337,0.6351,0.6354,0.6364,0.6336,0.6333,0.633,0.6321,0.6357,0.6357,0.6392,0.6392,0.6392]}]]